Tracking 30995 objects as of 5-Jul-2025
HD Live streaming from Space Station
objects crossing your sky now

YZ-1S DEB

Track YZ-1S DEB now!
10-day predictions


NORAD ID: 43644
Int'l Code: 2018-077C
Perigee: 661.5 km
Apogee: 673.9 km
Inclination: 98.0 °
Period: 97.9 minutes
Semi major axis: 7038 km
RCS: Unknown
Launch date: October 9, 2018
Source: People's Republic of China (PRC)
Launch site: Jiuquan Satellite Launch Center, China (JSC)

Note: This is SATELLITE DEBRIS
Your satellite tracking list
Your tracking list is empty




NASA's NSSDC Master Catalog

Two Line Element Set (TLE):
1 43644U 18077C   25185.84120023  .00002075  00000-0  35252-3 0  9999
2 43644  97.9639 231.4418 0008804  94.4506 265.7706 14.70158796359566
Source of the keplerian elements: AFSPC